Time,TemperatureF,DewpointF,PressureIn,WindDirection,WindDirectionDegrees,WindSpeedMPH,WindSpeedGustMPH,Humidity,HourlyPrecipIn,Conditions,Clouds,dailyrainin,SoftwareType,DateUTC
2013-04-01 00:03:00,40.0,-99.9,-100.00,North,-999,-999.0,-999.0,-999,0.01,,,0.04,,2013-04-01 04:03:00,
2013-04-01 00:14:00,40.0,-99.9,-100.00,North,-999,-999.0,-999.0,-999,0.01,,,0.04,,2013-04-01 04:14:00,
2013-04-01 00:24:00,40.0,-99.9,-100.00,North,-999,-999.0,-999.0,-999,0.01,,,0.04,,2013-04-01 04:24:00,
2013-04-01 00:30:00,40.0,-99.9,-100.00,North,-999,-999.0,-999.0,-999,0.16,,,0.20,,2013-04-01 04:30:00,
2013-04-01 01:03:00,40.0,-99.9,-100.00,North,-999,-999.0,-999.0,-999,0.16,,,0.20,,2013-04-01 05:03:00,
2013-04-01 01:13:00,40.0,-99.9,-100.00,North,-999,-999.0,-999.0,-999,0.16,,,0.20,,2013-04-01 05:13:00,
2013-04-01 01:23:00,40.0,-99.9,-100.00,North,-999,-999.0,-999.0,-999,0.16,,,0.20,,2013-04-01 05:23:00,
2013-04-01 01:30:00,40.0,-99.9,-100.00,North,-999,-999.0,-999.0,-999,0.07,,,0.27,,2013-04-01 05:30:00,
2013-04-01 02:03:00,40.0,-99.9,-100.00,North,-999,-999.0,-999.0,-999,0.07,,,0.27,,2013-04-01 06:03:00,
2013-04-01 02:13:00,40.0,-99.9,-100.00,North,-999,-999.0,-999.0,-999,0.07,,,0.27,,2013-04-01 06:13:00,
2013-04-01 02:23:00,40.0,-99.9,-100.00,North,-999,-999.0,-999.0,-999,0.07,,,0.27,,2013-04-01 06:23:00,
2013-04-01 02:30:00,40.0,-99.9,-100.00,North,-999,-999.0,-999.0,-999,0.10,,,0.37,,2013-04-01 06:30:00,
2013-04-01 03:03:00,40.0,-99.9,-100.00,North,-999,-999.0,-999.0,-999,0.10,,,0.37,,2013-04-01 07:03:00,
2013-04-01 03:13:00,40.0,-99.9,-100.00,North,-999,-999.0,-999.0,-999,0.10,,,0.37,,2013-04-01 07:13:00,
2013-04-01 03:23:00,40.0,-99.9,-100.00,North,-999,-999.0,-999.0,-999,0.10,,,0.37,,2013-04-01 07:23:00,
2013-04-01 03:30:00,39.0,-99.9,-100.00,North,-999,-999.0,-999.0,-999,0.05,,,0.42,,2013-04-01 07:30:00,
2013-04-01 03:53:00,39.0,-99.9,-100.00,North,-999,-999.0,-999.0,-999,0.05,,,0.42,,2013-04-01 07:53:00,
2013-04-01 04:03:00,39.0,-99.9,-100.00,North,-999,-999.0,-999.0,-999,0.05,,,0.42,,2013-04-01 08:03:00,
2013-04-01 04:13:00,39.0,-99.9,-100.00,North,-999,-999.0,-999.0,-999,0.05,,,0.42,,2013-04-01 08:13:00,
2013-04-01 04:23:00,39.0,-99.9,-100.00,North,-999,-999.0,-999.0,-999,0.05,,,0.42,,2013-04-01 08:23:00,
2013-04-01 04:30:00,39.0,-99.9,-100.00,North,-999,-999.0,-999.0,-999,0.03,,,0.45,,2013-04-01 08:30:00,
2013-04-01 04:53:00,39.0,-99.9,-100.00,North,-999,-999.0,-999.0,-999,0.03,,,0.45,,2013-04-01 08:53:00,
2013-04-01 05:03:00,39.0,-99.9,-100.00,North,-999,-999.0,-999.0,-999,0.03,,,0.45,,2013-04-01 09:03:00,
2013-04-01 05:12:00,39.0,-99.9,-100.00,North,-999,-999.0,-999.0,-999,0.03,,,0.45,,2013-04-01 09:12:00,
2013-04-01 05:23:00,39.0,-99.9,-100.00,North,-999,-999.0,-999.0,-999,0.03,,,0.45,,2013-04-01 09:23:00,
2013-04-01 05:54:00,37.0,-99.9,-100.00,North,-999,-999.0,-999.0,-999,0.00,,,0.45,,2013-04-01 09:54:00,
2013-04-01 06:13:00,37.0,-99.9,-100.00,North,-999,-999.0,-999.0,-999,0.00,,,0.45,,2013-04-01 10:13:00,
2013-04-01 06:24:00,37.0,-99.9,-100.00,North,-999,-999.0,-999.0,-999,0.00,,,0.45,,2013-04-01 10:24:00,
2013-04-01 06:30:00,37.0,-99.9,-100.00,North,-999,-999.0,-999.0,-999,0.01,,,0.46,,2013-04-01 10:30:00,
2013-04-01 07:04:00,37.0,-99.9,-100.00,North,-999,-999.0,-999.0,-999,0.01,,,0.46,,2013-04-01 11:04:00,
2013-04-01 07:13:00,37.0,-99.9,-100.00,North,-999,-999.0,-999.0,-999,0.01,,,0.46,,2013-04-01 11:13:00,
2013-04-01 07:23:00,37.0,-99.9,-100.00,North,-999,-999.0,-999.0,-999,0.01,,,0.46,,2013-04-01 11:23:00,
2013-04-01 07:30:00,37.0,-99.9,-100.00,North,-999,-999.0,-999.0,-999,0.01,,,0.47,,2013-04-01 11:30:00,
2013-04-01 08:03:00,37.0,-99.9,-100.00,North,-999,-999.0,-999.0,-999,0.01,,,0.47,,2013-04-01 12:03:00,
2013-04-01 08:12:00,37.0,-99.9,-100.00,North,-999,-999.0,-999.0,-999,0.01,,,0.47,,2013-04-01 12:12:00,
2013-04-01 08:24:00,37.0,-99.9,-100.00,North,-999,-999.0,-999.0,-999,0.01,,,0.47,,2013-04-01 12:24:00,
2013-04-01 08:30:00,38.0,-99.9,-100.00,North,-999,-999.0,-999.0,-999,0.00,,,0.47,,2013-04-01 12:30:00,
2013-04-01 08:53:00,38.0,-99.9,-100.00,North,-999,-999.0,-999.0,-999,0.00,,,0.47,,2013-04-01 12:53:00,
2013-04-01 09:03:00,38.0,-99.9,-100.00,North,-999,-999.0,-999.0,-999,0.00,,,0.47,,2013-04-01 13:03:00,
2013-04-01 09:13:00,38.0,-99.9,-100.00,North,-999,-999.0,-999.0,-999,0.00,,,0.47,,2013-04-01 13:13:00,
2013-04-01 09:23:00,38.0,-99.9,-100.00,North,-999,-999.0,-999.0,-999,0.00,,,0.47,,2013-04-01 13:23:00,
2013-04-01 09:30:00,41.0,-99.9,-100.00,North,-999,-999.0,-999.0,-999,0.00,,,0.47,,2013-04-01 13:30:00,
2013-04-01 10:05:00,41.0,-99.9,-100.00,North,-999,-999.0,-999.0,-999,0.00,,,0.47,,2013-04-01 14:05:00,
2013-04-01 10:13:00,41.0,-99.9,-100.00,North,-999,-999.0,-999.0,-999,0.00,,,0.47,,2013-04-01 14:13:00,
2013-04-01 10:23:00,41.0,-99.9,-100.00,North,-999,-999.0,-999.0,-999,0.00,,,0.47,,2013-04-01 14:23:00,
2013-04-01 10:30:00,44.0,-99.9,-100.00,North,-999,-999.0,-999.0,-999,0.00,,,0.47,,2013-04-01 14:30:00,
2013-04-01 11:04:00,44.0,-99.9,-100.00,North,-999,-999.0,-999.0,-999,0.00,,,0.47,,2013-04-01 15:04:00,
2013-04-01 11:13:00,44.0,-99.9,-100.00,North,-999,-999.0,-999.0,-999,0.00,,,0.47,,2013-04-01 15:13:00,
2013-04-01 11:23:00,44.0,-99.9,-100.00,North,-999,-999.0,-999.0,-999,0.00,,,0.47,,2013-04-01 15:23:00,
2013-04-01 11:30:00,47.0,-99.9,-100.00,North,-999,-999.0,-999.0,-999,0.00,,,0.47,,2013-04-01 15:30:00,
2013-04-01 11:54:00,47.0,-99.9,-100.00,North,-999,-999.0,-999.0,-999,0.00,,,0.47,,2013-04-01 15:54:00,
2013-04-01 12:13:00,47.0,-99.9,-100.00,North,-999,-999.0,-999.0,-999,0.00,,,0.47,,2013-04-01 16:13:00,
2013-04-01 12:24:00,47.0,-99.9,-100.00,North,-999,-999.0,-999.0,-999,0.00,,,0.47,,2013-04-01 16:24:00,
2013-04-01 12:30:00,50.0,-99.9,-100.00,North,-999,-999.0,-999.0,-999,0.00,,,-99.99,,2013-04-01 16:30:00,
2013-04-01 12:53:00,50.0,-99.9,-100.00,North,-999,-999.0,-999.0,-999,0.00,,,-99.99,,2013-04-01 16:53:00,
2013-04-01 13:04:00,50.0,-99.9,-100.00,North,-999,-999.0,-999.0,-999,0.00,,,-99.99,,2013-04-01 17:04:00,
2013-04-01 13:13:00,50.0,-99.9,-100.00,North,-999,-999.0,-999.0,-999,0.00,,,-99.99,,2013-04-01 17:13:00,
2013-04-01 13:23:00,50.0,-99.9,-100.00,North,-999,-999.0,-999.0,-999,0.00,,,-99.99,,2013-04-01 17:23:00,
2013-04-01 13:30:00,51.0,-99.9,-100.00,North,-999,-999.0,-999.0,-999,0.00,,,0.47,,2013-04-01 17:30:00,
2013-04-01 14:03:00,51.0,-99.9,-100.00,North,-999,-999.0,-999.0,-999,0.00,,,0.47,,2013-04-01 18:03:00,
2013-04-01 14:13:00,51.0,-99.9,-100.00,North,-999,-999.0,-999.0,-999,0.00,,,0.47,,2013-04-01 18:13:00,
2013-04-01 14:22:00,51.0,-99.9,-100.00,North,-999,-999.0,-999.0,-999,0.00,,,0.47,,2013-04-01 18:22:00,
2013-04-01 14:30:00,53.0,-99.9,-100.00,North,-999,-999.0,-999.0,-999,0.00,,,0.47,,2013-04-01 18:30:00,
2013-04-01 15:04:00,53.0,-99.9,-100.00,North,-999,-999.0,-999.0,-999,0.00,,,0.47,,2013-04-01 19:04:00,
2013-04-01 15:13:00,53.0,-99.9,-100.00,North,-999,-999.0,-999.0,-999,0.00,,,0.47,,2013-04-01 19:13:00,
2013-04-01 15:23:00,53.0,-99.9,-100.00,North,-999,-999.0,-999.0,-999,0.00,,,0.47,,2013-04-01 19:23:00,
2013-04-01 15:30:00,45.0,-99.9,-100.00,North,-999,-999.0,-999.0,-999,0.08,,,0.55,,2013-04-01 19:30:00,
2013-04-01 16:03:00,45.0,-99.9,-100.00,North,-999,-999.0,-999.0,-999,0.08,,,0.55,,2013-04-01 20:03:00,
2013-04-01 16:13:00,45.0,-99.9,-100.00,North,-999,-999.0,-999.0,-999,0.08,,,0.55,,2013-04-01 20:13:00,
2013-04-01 16:23:00,45.0,-99.9,-100.00,North,-999,-999.0,-999.0,-999,0.08,,,0.55,,2013-04-01 20:23:00,
2013-04-01 16:30:00,46.0,-99.9,-100.00,North,-999,-999.0,-999.0,-999,0.00,,,0.55,,2013-04-01 20:30:00,
2013-04-01 17:03:00,46.0,-99.9,-100.00,North,-999,-999.0,-999.0,-999,0.00,,,0.55,,2013-04-01 21:03:00,
2013-04-01 17:12:00,46.0,-99.9,-100.00,North,-999,-999.0,-999.0,-999,0.00,,,0.55,,2013-04-01 21:12:00,
2013-04-01 17:23:00,46.0,-99.9,-100.00,North,-999,-999.0,-999.0,-999,0.00,,,0.55,,2013-04-01 21:23:00,
2013-04-01 17:30:00,44.0,-99.9,-100.00,North,-999,-999.0,-999.0,-999,0.00,,,0.55,,2013-04-01 21:30:00,
2013-04-01 18:03:00,44.0,-99.9,-100.00,North,-999,-999.0,-999.0,-999,0.00,,,0.55,,2013-04-01 22:03:00,
2013-04-01 18:13:00,44.0,-99.9,-100.00,North,-999,-999.0,-999.0,-999,0.00,,,0.55,,2013-04-01 22:13:00,
2013-04-01 18:23:00,44.0,-99.9,-100.00,North,-999,-999.0,-999.0,-999,0.00,,,0.55,,2013-04-01 22:23:00,
2013-04-01 18:30:00,40.0,-99.9,-100.00,North,-999,-999.0,-999.0,-999,0.00,,,0.55,,2013-04-01 22:30:00,
2013-04-01 19:03:00,40.0,-99.9,-100.00,North,-999,-999.0,-999.0,-999,0.00,,,0.55,,2013-04-01 23:03:00,
2013-04-01 19:12:00,40.0,-99.9,-100.00,North,-999,-999.0,-999.0,-999,0.00,,,0.55,,2013-04-01 23:12:00,
2013-04-01 19:23:00,40.0,-99.9,-100.00,North,-999,-999.0,-999.0,-999,0.00,,,0.55,,2013-04-01 23:23:00,
2013-04-01 19:30:00,38.0,-99.9,-100.00,North,-999,-999.0,-999.0,-999,0.00,,,0.55,,2013-04-01 23:30:00,
2013-04-01 19:54:00,38.0,-99.9,-100.00,North,-999,-999.0,-999.0,-999,0.00,,,0.55,,2013-04-01 23:54:00,
2013-04-01 20:03:00,38.0,-99.9,-100.00,North,-999,-999.0,-999.0,-999,0.00,,,0.55,,2013-04-02 00:03:00,
2013-04-01 20:13:00,38.0,-99.9,-100.00,North,-999,-999.0,-999.0,-999,0.00,,,0.55,,2013-04-02 00:13:00,
2013-04-01 20:23:00,38.0,-99.9,-100.00,North,-999,-999.0,-999.0,-999,0.00,,,0.55,,2013-04-02 00:23:00,
2013-04-01 20:30:00,37.0,-99.9,-100.00,North,-999,-999.0,-999.0,-999,0.00,,,0.55,,2013-04-02 00:30:00,
2013-04-01 21:03:00,37.0,-99.9,-100.00,North,-999,-999.0,-999.0,-999,0.00,,,0.55,,2013-04-02 01:03:00,
2013-04-01 21:13:00,37.0,-99.9,-100.00,North,-999,-999.0,-999.0,-999,0.00,,,0.55,,2013-04-02 01:13:00,
2013-04-01 21:23:00,37.0,-99.9,-100.00,North,-999,-999.0,-999.0,-999,0.00,,,0.55,,2013-04-02 01:23:00,
2013-04-01 21:30:00,35.0,-99.9,-100.00,North,-999,-999.0,-999.0,-999,0.00,,,0.54,,2013-04-02 01:30:00,
2013-04-01 22:04:00,35.0,-99.9,-100.00,North,-999,-999.0,-999.0,-999,0.00,,,0.54,,2013-04-02 02:04:00,
2013-04-01 22:13:00,35.0,-99.9,-100.00,North,-999,-999.0,-999.0,-999,0.00,,,0.54,,2013-04-02 02:13:00,
2013-04-01 22:23:00,35.0,-99.9,-100.00,North,-999,-999.0,-999.0,-999,0.00,,,0.54,,2013-04-02 02:23:00,
2013-04-01 22:30:00,33.0,-99.9,-100.00,North,-999,-999.0,-999.0,-999,0.00,,,0.52,,2013-04-02 02:30:00,
2013-04-01 22:53:00,33.0,-99.9,-100.00,North,-999,-999.0,-999.0,-999,0.00,,,0.52,,2013-04-02 02:53:00,
2013-04-01 23:03:00,33.0,-99.9,-100.00,North,-999,-999.0,-999.0,-999,0.00,,,0.52,,2013-04-02 03:03:00,
2013-04-01 23:13:00,33.0,-99.9,-100.00,North,-999,-999.0,-999.0,-999,0.00,,,0.52,,2013-04-02 03:13:00,
2013-04-01 23:23:00,33.0,-99.9,-100.00,North,-999,-999.0,-999.0,-999,0.00,,,0.52,,2013-04-02 03:23:00,